Regional Weather Roundup
Issued by NWS

Home | Current Version | Previous Version | Text Only | Print | Product List | Glossary On
Versions: 1 2 3 4 5 6 7 8 9 10 11 12 13 14 15 16 17 18 19 20 21 22 23 24 25 26 27 28 29 30 31 32 33 34 35 36 37 38 39 40 41 42 43 44 45 46 47 48 49 50
000
ASUS43 KMPX 261801
RWRMN
WEATHER ROUNDUP FOR MINNESOTA
NATIONAL WEATHER SERVICE TWIN CITIES/CHANHASSEN MN
1200 PM CST FRI DEC 26 2014


NOTE: "FAIR" INDICATES FEW OR NO CLOUDS BELOW 12,000 FEET WITH NO
SIGNIFICANT WEATHER AND/OR OBSTRUCTIONS TO VISIBILITY. N/A MEANS
CURRENT SKY AND/OR WEATHER CONDITIONS ARE NOT AVAILABLE.

MNZ060>063-068>070-261900-
   Twin Cities Metro

CITY           SKY/WX    TMP DP  RH WIND       PRES   REMARKS
TWIN CITIES    CLOUDY    31  26  82 N12G24    30.02F WCI  22
6HR MIN TEMP:  31; 6HR MAX TEMP:  32; 6HR PCP: TRACE;

ST PAUL        CLOUDY    31  27  85 N9G18     30.03S WCI  23
CRYSTAL        CLOUDY    32  27  81 N10       30.01F WCI  24
BLAINE         CLOUDY    32  30  93 N12G17    30.02S WCI  23
LAKEVILLE      CLOUDY    30  28  93 N8        30.01R WCI  23
EDEN PRAIRIE   CLOUDY    31  26  82 N13       30.01S WCI  21
6HR MIN TEMP:  31; 6HR MAX TEMP:  33;

SOUTH ST PAUL  CLOUDY    32  28  86 N10       30.01S WCI  24
LAKE ELMO      CLOUDY    32  30  93 N10       30.01F WCI  24
$$
MNZ001>005-007-008-013>017-022>024-027-028-261900-
   Northwest Minnesota

CITY           SKY/WX    TMP DP  RH WIND       PRES   REMARKS
BEMIDJI        FAIR      23  16  73 NW14      30.09F WCI  11
HALLOCK        FLURRIES  16  12  86 NW13      30.19F WCI   2
ROSEAU         CLOUDY    21  16  79 W3        30.14F
WARROAD        CLOUDY    19  16  86 NW5       30.14F WCI  13
THIEF RVR FALL PTSUNNY   23  18  80 N9        30.15S WCI  13
CROOKSTON      CLOUDY    21  18  86 N16       30.18S WCI   7
FOSSTON        FLURRIES  21  19  93 N8        30.12F WCI  12
DETROIT LAKES  CLOUDY    25  23  93 N13G18    30.11F FOG     WCI  13
MOORHEAD       FLURRIES  25  23  93 N14       30.16F WCI  13
PARK RAPIDS    CLOUDY    25  17  72 N7        30.07F WCI  17
MAHNOMEN       CLOUDY    23  18  81 N10       30.12S WCI  13
$$
MNZ006-009>011-018-025>026-261900-
   North Central Minnesota

CITY           SKY/WX    TMP DP  RH WIND       PRES   REMARKS
BAUDETTE       LGT SNOW  21  14  74 NW15      30.11F WCI   8
FLAG ISLAND    CLOUDY    18  14  86 NW6       30.12F WCI   9
INTL FALLS     CLOUDY    24  18  77 NW7       30.08F WCI  16
6HR MIN TEMP:  21; 6HR MAX TEMP:  24;

WASKISH        CLOUDY    23  18  80 CALM      30.11F
BIG FORK       CLOUDY    25  18  74 N3        30.08F
LONGVILLE      CLOUDY    25  19  80 NW6       30.07F WCI  18
GRAND RAPIDS   CLOUDY    25  19  80 N9        30.05F WCI  15
CRANE LAKE     CLOUDY    25  21  86 N3        30.08F
ORR            CLOUDY    25  19  80 NW6       30.04S WCI  18
COOK           CLOUDY    25  21  86 W8        30.05F WCI  16
WALKER         CLOUDY    24  17  75 N7        30.08F WCI  15
$$
MNZ012-019>021-037-261900-
   Northeast Minnesota

CITY           SKY/WX    TMP DP  RH WIND       PRES   REMARKS
DULUTH         FLURRIES  29  22  75 N10       30.00F WCI  20
6HR MIN TEMP:  27; 6HR MAX TEMP:  29; 6HR PCP: TRACE;

ELY            CLOUDY    27  23  86 NW5       30.02F WCI  21
HIBBING        CLOUDY    27  22  81 NW12      30.04F WCI  17
EVELETH        PTSUNNY   28  27  93 NW5       30.04F WCI  23
DULUTH HARBOR  CLOUDY    32  27  80 CALM      30.06F
TWO HARBORS    CLOUDY    34  27  75 N6        30.02S WCI  29
SILVER BAY     CLOUDY    32  25  74 CALM      30.01S
GRAND MARAIS     N/A     33  24  69 N7        30.03S WCI  27
G MARAIS ARPRT PTSUNNY   25  19  80 NW5       29.98F WCI  19
$$
MNZ029>031-032-039>041-046>048-054>057-064-261900-
   West Central Minnesota

CITY           SKY/WX    TMP DP  RH WIND       PRES   REMARKS
FERGUS FALLS   CLOUDY    25  19  80 N10       30.14F WCI  15
WHEATON        CLOUDY    21  19  93 N13       30.15F WCI   9
MORRIS         FAIR      27  25  93 N14       30.09S WCI  15
ALEXANDRIA     CLOUDY    26  21  81 N10       30.07S WCI  16
ELBOW LAKE     CLOUDY    25  20  83 N15       30.09F WCI  12
WADENA         CLOUDY    25  19  80 N10       30.07F WCI  15
GLENWOOD       CLOUDY    27  21  80 N10       30.07S WCI  17
APPLETON       CLOUDY    28  25  86 N14       30.11S WCI  17
BENSON         PTSUNNY   28  21  74 NE10      30.09S WCI  19
ORTONVILLE     CLOUDY    25  21  86 N14       30.11S WCI  13
MADISON          N/A     28  27  93 N15       30.11S FOG     WCI  17
WILLMAR        CLOUDY    28  23  80 N13       30.08S WCI  18
$$
MNZ033>034-036-042>043-049>051-058-059-261900-
   Central Minnesota

CITY           SKY/WX    TMP DP  RH WIND       PRES   REMARKS
ST CLOUD       CLOUDY    32  24  72 N10       30.04F WCI  24
6HR MIN TEMP:  31; 6HR MAX TEMP:  32; 6HR PCP:  0.01;

SAUK CENTRE    CLOUDY    27  22  80 N7        30.07R WCI  19
PAYNESVILLE    CLOUDY    26  23  89 N8        30.06S WCI  17
AITKIN         CLOUDY    30  23  74 NW6       30.04S WCI  24
PINE RIVER     CLOUDY    27  19  74 N9        30.10S WCI  17
BRAINERD       CLOUDY    27  20  75 N13       30.06F WCI  16
STAPLES        CLOUDY    25  19  80 N14       30.07S WCI  13
LONG PRAIRIE   CLOUDY    27  21  80 N9        30.06F WCI  17
LITTLE FALLS   CLOUDY    28  23  80 N5        30.06S WCI  23
LITCHFIELD     CLOUDY    30  27  86 N12       30.05S WCI  21
BUFFALO        CLOUDY    30  26  83 N9        30.04F WCI  22
MAPLE LAKE     CLOUDY    31  28  89 N12       30.05S WCI  22
$$
MNZ037-044-045-052-053-261900-
   East Central Minnesota

CITY           SKY/WX    TMP DP  RH WIND       PRES   REMARKS
PRINCETON      CLOUDY    30  27  86 N8        30.04F WCI  23
MORA           PTSUNNY   30  25  80 N6        30.05S WCI  24
CAMBRIDGE      PTSUNNY   32  23  69 N7        30.01F WCI  26
RUSH CITY      CLOUDY    30  26  84 N9        30.03F WCI  22
MOOSE LAKE     CLOUDY    30  25  80 N5        30.02F WCI  25
HINCKLEY       CLOUDY    32  27  80 N7        30.03F WCI  26
CLOQUET        CLOUDY    28  23  80 N6        30.02F WCI  22
MCGREGOR       CLOUDY    30  23  74 N10       30.05S WCI  21
$$
MNZ071>073-080-081-089-090-097-098-261900-
   Southwest Minnesota

CITY           SKY/WX    TMP DP  RH WIND       PRES   REMARKS
MONTEVIDEO     CLOUDY    28  25  86 N13       30.10S WCI  18
GRANITE FALLS  CLOUDY    28  25  87 NW12      30.10S WCI  18
CANBY          CLOUDY    26  24  91 N10       30.11F WCI  16
MARSHALL       CLOUDY    27  21  80 N15       30.07F WCI  15
REDWOOD FALLS  CLOUDY    30  25  81 N10       30.06S WCI  21
OLIVIA         CLOUDY    28  27  93 N10       30.06S WCI  19
PIPESTONE      CLOUDY    25  23  93 NE14G20   30.04F WCI  13
WINDOM         CLOUDY    28  28 100 N17       30.01F WCI  16
WORTHINGTON    CLOUDY    27 -20  12 N12       30.02S WCI  16
JACKSON        CLOUDY    30  28  93 VRB14G22  30.00F WCI  20
TRACY          CLOUDY    28  27  94 N15       30.05F WCI  17
SLAYTON        CLOUDY    26  25  96 N15       30.03F WCI  13
$$
MNZ065>067-074>077-082>085-091>093-261900-
   South Central Minnesota

CITY           SKY/WX    TMP DP  RH WIND       PRES   REMARKS
MANKATO        CLOUDY    32  27  80 N14       30.01S WCI  22
NEW ULM        CLOUDY    30  27  86 N8        30.03F WCI  23
ST JAMES       CLOUDY    32  28  86 N14       30.02F WCI  22
FAIRMONT       CLOUDY    30  27  86 N17       29.98F WCI  18
GLENCOE        CLOUDY    32  29  87 N10G16    30.03S WCI  24
FARIBAULT      CLOUDY    32  28  86 N10       29.99F WCI  24
OWATONNA       CLOUDY    32  30  93 N13       29.98F FOG     WCI  22
ALBERT LEA     CLOUDY    34  34 100 N14       29.95F FOG     WCI  24
$$
MNZ078>079-086>088-094>096-261900-
   Southeast Minnesota

CITY           SKY/WX    TMP DP  RH WIND       PRES   REMARKS
ROCHESTER      CLOUDY    32  30  92 N13       29.94F FOG     WCI  22
6HR MIN TEMP:  23; 6HR MAX TEMP:  32;

RED WING       CLOUDY    36  30  80 N3        29.98S
STANTON        CLOUDY    33  30  88 N9        29.99R FOG     WCI  25
DODGE CENTER   CLOUDY    34  32  93 N13       29.95F FOG     WCI  25
WINONA         FAIR      37  34  87 NW6       29.96S
AUSTIN         CLOUDY    32  30  93 N9G17     29.94F FOG     WCI  24
PRESTON        CLOUDY    31  30  96 N9        29.94S FOG     WCI  22
$$
ABBREVIATIONS USED IN REMARKS
   TC - TEMPERATURES IN CELSIUS
  WCI - WIND CHILL INDEX
   HX - HEAT INDEX
  VSB - VISIBILITY
$$


USA.gov is the U.S. government's official web portal to all federal, state and local government web resources and services.